KD0KHX-10 Weather Reports


time (UTC)temp
F
wind
direction
speed
knots
gust
knots
rain 1hr
in
rain 24hr
in
rain mn
in
humidity
%
barometer
mb
20260504205716 82 259 3.5 8.7 0.00 0.00 0.00 16 996.8
20260504205217 82 231 2.6 8.7 0.00 0.00 0.00 15 996.8
20260504204503 83 108 1.7 6.1 0.00 0.00 0.00 17 996.9
20260504204432 83 112 1.7 7.0 0.00 0.00 0.00 17 996.9
20260504203716 82 160 5.2 11.3 0.00 0.00 0.00 16 997.1
20260504203003 82 200 5.2 11.3 0.00 0.00 0.00 16 997.2
20260504202503 82 203 4.3 8.7 0.00 0.00 0.00 18 997.1
20260504202003 81 201 3.5 7.0 0.00 0.00 0.00 17 997.2
20260504201503 82 209 2.6 6.1 0.00 0.00 0.00 16 997.3
20260504201432 82 205 2.6 6.1 0.00 0.00 0.00 17 997.3
20260504200503 83 224 3.5 8.7 0.00 0.00 0.00 16 997.5
20260504200003 83 338 3.5 7.0 0.00 0.00 0.00 17 997.5
20260504195503 82 314 3.5 7.8 0.00 0.00 0.00 17 997.5
20260504195217 82 265 3.5 7.8 0.00 0.00 0.00 17 997.6
20260504194503 82 260 4.3 10.4 0.00 0.00 0.00 18 997.6
20260504194217 81 276 6.1 11.3 0.00 0.00 0.00 18 997.8
20260504193503 81 307 5.2 11.3 0.00 0.00 0.00 17 997.8
20260504193003 81 58 3.5 8.7 0.00 0.00 0.00 18 997.9
20260504192933 81 63 3.5 8.7 0.00 0.00 0.00 18 997.9
20260504192217 80 67 3.5 8.7 0.00 0.00 0.00 20 998.1
20260504191503 80 21 4.3 9.6 0.00 0.00 0.00 18 998.2
20260504191003 80 309 4.3 9.6 0.00 0.00 0.00 19 998.4
20260504190718 80 273 4.3 9.6 0.00 0.00 0.00 19 998.4
20260504190003 79 225 7.0 12.2 0.00 0.00 0.00 19 998.4
20260504185503 80 229 6.1 12.2 0.00 0.00 0.00 19 998.4
20260504185003 80 216 4.3 8.7 0.00 0.00 0.00 19 998.4
20260504184718 79 209 3.5 7.8 0.00 0.00 0.00 20 998.5
20260504184432 79 228 4.3 7.8 0.00 0.00 0.00 19 998.5
20260504183503 80 23 4.3 10.4 0.00 0.00 0.00 20 998.6
20260504183003 80 356 5.2 8.7 0.00 0.00 0.00 18 998.7
20260504182717 80 345 5.2 12.2 0.00 0.00 0.00 19 998.8
20260504182003 80 10 4.3 12.2 0.00 0.00 0.00 21 998.8
20260504181503 79 8 5.2 10.4 0.00 0.00 0.00 20 998.9
20260504181007 79 12 5.2 12.2 0.00 0.00 0.00 19 999.1
20260504180503 78 31 5.2 12.2 0.00 0.00 0.00 22 999.1
20260504180003 77 38 6.1 10.4 0.00 0.00 0.00 22 999.2
20260504175932 77 36 6.1 10.4 0.00 0.00 0.00 23 999.3
20260504175216 76 37 6.1 12.2 0.00 0.00 0.00 23 999.3
20260504174717 76 29 7.8 13.0 0.00 0.00 0.00 22 999.4
20260504174003 78 19 9.6 13.0 0.00 0.00 0.00 22 999.4
20260504173503 78 20 9.6 13.9 0.00 0.00 0.00 22 999.5
20260504173003 79 15 10.4 15.6 0.00 0.00 0.00 22 999.5
20260504172932 79 16 10.4 15.6 0.00 0.00 0.00 22 999.5
20260504172003 78 6 9.6 14.8 0.00 0.00 0.00 21 999.5
20260504171932 78 6 9.6 14.8 0.00 0.00 0.00 22 999.5
20260504171433 78 7 9.6 13.9 0.00 0.00 0.00 23 999.7
20260504170503 77 5 9.6 13.9 0.00 0.00 0.00 22 999.7
20260504150503 70 270 8.7 13.0 0.00 0.00 0.00 30 999.9
20260504141003 61 294 7.0 10.4 0.00 0.00 0.00 47 1000.4
20260504140503 60 283 7.0 8.7 0.00 0.00 0.00 49 1000.4
20260504130503 48 300 7.0 9.6 0.00 0.00 0.00 65 1000.1
20260504110503 40 269 3.5 7.8 0.00 0.00 0.00 71 999.5
20260504110218 40 255 3.5 7.8 0.00 0.00 0.00 71 999.6
20260504100503 41 243 3.5 4.3 0.00 0.00 0.00 69 999.9
20260504082003 45 282 2.6 3.5 0.00 0.00 0.00 66 1000.7
20260504081933 45 282 2.6 3.5 0.00 0.00 0.00 66 1000.7
20260504081003 45 282 3.5 5.2 0.00 0.00 0.00 66 1000.8
20260504080718 45 282 2.6 3.5 0.00 0.00 0.00 66 1000.9
20260504050003 54 112 3.5 5.2 0.00 0.00 0.00 52 1001.9
20260504045503 54 97 4.3 6.1 0.00 0.00 0.00 52 1002.0
20260504045003 53 92 3.5 6.1 0.00 0.00 0.00 51 1002.0
20260504044503 53 95 1.7 5.2 0.00 0.00 0.00 52 1002.0
20260504044217 53 93 0.9 2.6 0.00 0.00 0.00 51 1002.0
20260504043503 53 86 0.9 2.6 0.00 0.00 0.00 50 1002.1
20260504043003 53 86 1.7 6.1 0.00 0.00 0.00 49 1002.2
20260504042933 53 86 1.7 6.1 0.00 0.00 0.00 49 1002.2
20260504042003 54 88 5.2 6.1 0.00 0.00 0.00 49 1002.3
20260504041503 54 76 5.2 7.8 0.00 0.00 0.00 48 1002.3
20260504041003 54 62 6.1 7.8 0.00 0.00 0.00 49 1002.4
20260504040503 54 49 5.2 7.0 0.00 0.00 0.00 48 1002.3
20260504040003 54 51 6.1 9.6 0.00 0.00 0.00 47 1002.4
20260504035503 56 69 7.8 10.4 0.00 0.00 0.00 45 1002.4
20260504035003 57 78 8.7 10.4 0.00 0.00 0.00 44 1002.4
20260504034503 57 80 8.7 9.6 0.00 0.00 0.00 44 1002.4
20260504034432 57 81 8.7 9.6 0.00 0.00 0.00 44 1002.4
20260504033718 58 81 8.7 10.4 0.00 0.00 0.00 43 1002.4
20260504033217 59 82 8.7 10.4 0.00 0.00 0.00 42 1002.4
20260504032503 59 79 7.8 9.6 0.00 0.00 0.00 41 1002.4
20260504032432 59 78 7.8 9.6 0.00 0.00 0.00 41 1002.4
20260504031503 59 76 8.7 10.4 0.00 0.00 0.00 40 1002.4
20260504031432 59 77 8.7 10.4 0.00 0.00 0.00 40 1002.4
20260504030503 59 76 7.8 9.6 0.00 0.00 0.00 39 1002.4
20260504030003 60 77 8.7 10.4 0.00 0.00 0.00 38 1002.3
20260504025503 60 79 8.7 10.4 0.00 0.00 0.00 37 1002.2
20260504025217 60 78 8.7 10.4 0.00 0.00 0.00 37 1002.1
20260504024503 60 76 7.8 10.4 0.00 0.00 0.00 38 1002.1
20260504024003 60 67 5.2 8.7 0.00 0.00 0.00 38 1002.1
20260504023718 60 57 4.3 7.8 0.00 0.00 0.00 38 1002.0
20260504023432 60 54 4.3 7.8 0.00 0.00 0.00 37 1002.0
20260504022503 63 66 8.7 10.4 0.00 0.00 0.00 34 1002.0
20260504022003 64 66 8.7 11.3 0.00 0.00 0.00 33 1002.0
20260504021503 64 69 9.6 11.3 0.00 0.00 0.00 32 1001.9
20260504021216 65 70 9.6 11.3 0.00 0.00 0.00 32 1001.9
20260504020503 65 68 9.6 11.3 0.00 0.00 0.00 32 1001.8
20260504020433 65 67 9.6 11.3 0.00 0.00 0.00 32 1001.8
20260504015503 67 68 9.6 11.3 0.00 0.00 0.00 31 1001.8
20260504015433 67 69 9.6 11.3 0.00 0.00 0.00 31 1001.8
20260504014503 67 72 8.7 10.4 0.00 0.00 0.00 29 1001.7
20260504014003 68 66 8.7 11.3 0.00 0.00 0.00 28 1001.8
20260504013717 68 62 8.7 11.3 0.00 0.00 0.00 28 1001.8
20260504013003 69 53 9.6 11.3 0.00 0.00 0.00 27 1001.8
20260504012717 70 50 7.8 11.3 0.00 0.00 0.00 26 1001.7
20260504012003 70 48 7.0 9.6 0.00 0.00 0.00 25 1001.7
20260504011503 71 49 7.0 9.6 0.00 0.00 0.00 23 1001.7
20260504011433 71 49 7.0 9.6 0.00 0.00 0.00 23 1001.7
20260504010503 73 46 5.2 7.8 0.00 0.00 0.00 22 1001.7
20260504010003 74 43 5.2 7.8 0.00 0.00 0.00 21 1001.8
20260504005932 74 42 5.2 7.8 0.00 0.00 0.00 21 1001.8
20260504005004 76 40 7.0 9.6 0.00 0.00 0.00 20 1001.8
20260504004503 76 35 7.0 9.6 0.00 0.00 0.00 20 1001.8
20260504004003 76 31 6.1 8.7 0.00 0.00 0.00 21 1001.9
20260504003503 76 31 5.2 7.8 0.00 0.00 0.00 22 1001.9
20260504003003 75 32 5.2 7.8 0.00 0.00 0.00 23 1001.9
20260504002503 75 30 6.1 7.8 0.00 0.00 0.00 22 1002.0
20260504002003 74 29 6.1 7.8 0.00 0.00 0.00 23 1002.0
20260504001503 74 22 6.1 7.8 0.00 0.00 0.00 23 1002.0
20260504001218 75 15 6.1 7.8 0.00 0.00 0.00 23 1002.0
20260504000717 75 11 5.2 7.8 0.00 0.00 0.00 23 1002.1
20260504000433 76 15 4.3 7.8 0.00 0.00 0.00 22 1002.1
20260503235503 77 4 6.1 9.6 0.00 0.00 0.00 20 1002.2
20260503235003 78 4 7.8 9.6 0.00 0.00 0.00 18 1002.2
20260503234503 79 4 8.7 10.4 0.00 0.00 0.00 18 1002.2
20260503234217 79 1 8.7 10.4 0.00 0.00 0.00 18 1002.3
20260503233503 79 5 6.1 9.6 0.00 0.00 0.00 19 1002.3
20260503233003 79 31 3.5 8.7 0.00 0.00 0.00 18 1002.3
20260503232503 80 29 2.6 7.8 0.00 0.00 0.00 16 1002.3
20260503232003 80 34 4.3 7.8 0.00 0.00 0.00 17 1002.3
20260503231716 80 38 5.2 7.8 0.00 0.00 0.00 17 1002.3
20260503231003 79 25 6.1 9.6 0.00 0.00 0.00 19 1002.3
20260503230503 80 6 7.0 10.4 0.00 0.00 0.00 19 1002.4
20260503230003 80 360 7.0 10.4 0.00 0.00 0.00 19 1002.5
20260503225503 80 10 6.1 13.9 0.00 0.00 0.00 18 1002.5
20260503225003 80 28 4.3 13.9 0.00 0.00 0.00 19 1002.5
20260503224503 80 57 3.5 7.8 0.00 0.00 0.00 18 1002.6
20260503224217 80 65 3.5 7.8 0.00 0.00 0.00 18 1002.5
20260503223933 80 65 2.6 7.0 0.00 0.00 0.00 18 1002.6
20260503223003 80 9 5.2 11.3 0.00 0.00 0.00 18 1002.7
20260503222503 80 360 5.2 10.4 0.00 0.00 0.00 18 1002.7
20260503222003 81 359 6.1 10.4 0.00 0.00 0.00 19 1002.7
20260503221718 81 352 5.2 10.4 0.00 0.00 0.00 18 1002.7
20260503221217 80 10 5.2 10.4 0.00 0.00 0.00 18 1002.8
20260503220503 80 42 1.7 7.0 0.00 0.00 0.00 18 1003.0
20260503220003 80 28 1.7 7.0 0.00 0.00 0.00 18 1003.1
20260503215718 80 32 3.5 8.7 0.00 0.00 0.00 18 1003.1
20260503215003 80 36 3.5 8.7 0.00 0.00 0.00 17 1003.1
20260503214503 80 42 1.7 7.8 0.00 0.00 0.00 18 1003.2
20260503214003 80 30 3.5 8.7 0.00 0.00 0.00 17 1003.4
20260503213933 80 30 3.5 8.7 0.00 0.00 0.00 17 1003.4
20260503213003 80 19 4.3 9.6 0.00 0.00 0.00 18 1003.4
20260503212503 81 340 4.3 9.6 0.00 0.00 0.00 19 1003.6
20260503212003 81 335 5.2 8.7 0.00 0.00 0.00 19 1003.6
20260503211503 80 345 4.3 8.7 0.00 0.00 0.00 20 1003.6
20260503211003 79 5 4.3 9.6 0.00 0.00 0.00 21 1003.8
20260503210503 78 37 4.3 9.6 0.00 0.00 0.00 21 1003.9
20260503210003 78 58 5.2 12.2 0.00 0.00 0.00 21 1004.0